Погода в Бешпагире

Россия / Ставропольский край     45°01′09″N   42°22′36″E
темп.,
°C
ветер,
м/с
пор.,
м/с
влажн.,
%
обл.,
%
осадки,
мм/ч
давл.,
гПа
погр.,
м
5 августа, чт
чт500:00+23ю116581 0.3 101519
03:00+22зсз116824 0.3 101411
06:00+21ссз1279100 1.6 101666
09:00+25в1264100 4.7 1015272
12:00+30всв4545100 0.0 1014977
15:00+32в45350 0.0 10122016
18:00+32вюв35364 0.0 1011656
21:00+27всв22440 0.0 101119
6 августа, пт
пт600:00+24в411470 0.0 1012329
03:00+24вюв413500 0.0 1011384
06:00+23вюв614550 0.0 1011501
09:00+28вюв811420 0.0 1010912
12:00+33вюв911270 0.0 10091697
15:00+35вюв910280 0.0 10062440
18:00+34в711300 0.0 10051079
21:00+29вюв815359 0.0 1006554
7 августа, сб
сб700:00+25вюв61548100 0.0 1006478
03:00+24вюв61455100 0.0 1006442
06:00+23вюв4136533 0.0 1006481
09:00+28юв584393 0.0 1006916
12:00+34вюв673144 0.0 10051453
15:00+37вюв57235 0.0 10032109
18:00+35ююз353092 0.0 1002202
21:00+25з3762100 0.0 1007199
8 августа, вс
вс800:00+24юз3562100 0.2 1008135
03:00+22зсз268399 1.6 1009193
06:00+23юз127353 0.1 101062
09:00+29зсз344740 0.1 1010817
12:00+33сз443236 0.0 10091962
15:00+35сз45275 0.0 10092428
18:00+34зсз45315 0.0 1009855
21:00+27зсз914494 0.0 1012519
9 августа, пн
пн900:00+22ююз347543 1.4 101395
03:00+21ююз33755 1.4 101358
06:00+22зюз12750 0.0 101371
09:00+28з34535 0.2 1013693
12:00+32зсз22375 0.0 10121869
15:00+34зсз22325 0.0 10112296
18:00+34юз213323 0.0 10111770
21:00+25зюз226393 2.4 101219